Weather History for Childress, TX

Change the Weather History Date:

Thursday, April 25, 2013

  Actual Average Record
Temperature  
Mean Temperature 54 °F 65 °F  
Max Temperature 70 °F 79 °F 106 °F (2012)
Min Temperature 37 °F 51 °F 37 °F (2013)
Degree Days  
Heating Degree Days 11 3  
Month to date heating degree days 270 139  
Since 1 July heating degree days 3014 3074  
Cooling Degree Days 0 3  
Month to date cooling degree days 26 53  
Year to date cooling degree days 30 72  
Growing Degree Days 3 (Base 50)    
Moisture  
Dew Point 27 °F    
Average Humidity 38    
Maximum Humidity 59    
Minimum Humidity 17    
Precipitation  
Precipitation 0.00 in 0.08 in 2.28 in (1997)
Month to date precipitation 0.90 1.68  
Year to date precipitation 4.24 4.99  
Sea Level Pressure  
Sea Level Pressure 30.21 in    
Wind  
Wind Speed 11 mph (SSE)    
Max Wind Speed 24 mph    
Max Gust Speed 29 mph    
Visibility 10 miles    
Events      
T = Trace of Precipitation, MM = Missing Value Source: NWS Daily Summary

Daily Weather History Graph

Daily Weather History Graph

Search for Another Location

Airport:

Trip Planner

Search our weather history database for the weather conditions in past years. The results will help you decide how hot, cold, wet, or windy it might be!

Date:

Astronomy

Apr. 25, 2013 Rise Set
Actual Time 6:57 AM CDT 8:21 PM CDT
Civil Twilight 6:31 AM CDT 8:47 PM CDT
Nautical Twilight 5:59 AM CDT 9:19 PM CDT
Astronomical Twilight 5:26 AM CDT 9:52 PM CDT
Moon 8:34 PM CDT (4/25) 6:41 AM CDT (4/25)
Length of Visible Light 14h 16m
Length of Day
13h 23m
Full, 100% of the Moon is Illuminated
Apr 25
Full
Apr 25
Full
May 2
Last Quarter
May 9
New
May 17
First Quarter

Hourly Weather History & Observations

Time (CDT) Temp. Windchill Dew Point Humidity Pressure Visibility Wind Dir Wind Speed Gust Speed Precip Events Conditions
12:53 AM 44.1 °F 40.1 °F 27.0 °F 51% 30.31 in 10.0 mi ESE 6.9 mph - N/A   Clear
1:53 AM 41.0 °F 35.8 °F 27.0 °F 57% 30.31 in 10.0 mi SSE 8.1 mph - N/A   Clear
2:53 AM 39.9 °F 35.1 °F 27.0 °F 60% 30.31 in 10.0 mi SSE 6.9 mph - N/A   Clear
3:53 AM 39.9 °F 37.8 °F 27.0 °F 60% 30.31 in 10.0 mi SE 3.5 mph - N/A   Clear
4:53 AM 37.0 °F - 23.0 °F 57% 30.31 in 10.0 mi Calm Calm - N/A   Clear
5:53 AM 39.0 °F - 25.0 °F 57% 30.31 in 10.0 mi Calm Calm - N/A   Clear
6:53 AM 39.9 °F 37.8 °F 26.1 °F 58% 30.32 in 10.0 mi NNW 3.5 mph - N/A   Clear
7:53 AM 43.0 °F - 26.1 °F 51% 30.31 in 10.0 mi Calm Calm - N/A   Clear
8:53 AM 46.9 °F - 28.0 °F 48% 30.30 in 10.0 mi Calm Calm - N/A   Clear
9:53 AM 53.1 °F - 28.9 °F 40% 30.31 in 10.0 mi South 8.1 mph - N/A   Clear
10:53 AM 57.9 °F - 28.9 °F 33% 30.30 in 10.0 mi SSE 8.1 mph - N/A   Partly Cloudy
11:53 AM 60.1 °F - 27.0 °F 28% 30.30 in 10.0 mi South 11.5 mph - N/A   Overcast
12:53 PM 61.0 °F - 21.0 °F 21% 30.28 in 10.0 mi South 13.8 mph - N/A   Overcast
1:53 PM 64.0 °F - 23.0 °F 21% 30.24 in 10.0 mi South 12.7 mph - N/A   Overcast
2:53 PM 66.9 °F - 21.9 °F 18% 30.20 in 10.0 mi SSE 13.8 mph - N/A   Mostly Cloudy
3:53 PM 68.0 °F - 21.0 °F 17% 30.16 in 10.0 mi SSE 17.3 mph 23.0 mph N/A   Overcast
4:53 PM 68.0 °F - 24.1 °F 19% 30.12 in 10.0 mi South 18.4 mph - N/A   Overcast
5:53 PM 68.0 °F - 28.0 °F 22% 30.09 in 10.0 mi SE 17.3 mph 25.3 mph N/A   Overcast
6:53 PM 69.1 °F - 30.0 °F 23% 30.06 in 10.0 mi SSE 19.6 mph 24.2 mph N/A   Overcast
7:53 PM 68.0 °F - 30.9 °F 25% 30.04 in 10.0 mi SE 17.3 mph 24.2 mph N/A   Overcast
8:53 PM 66.9 °F - 32.0 °F 27% 30.06 in 10.0 mi SSE 13.8 mph - N/A   Overcast
9:53 PM 66.0 °F - 33.1 °F 29% 30.08 in 10.0 mi SSE 15.0 mph - N/A   Overcast
10:53 PM 64.9 °F - 34.0 °F 32% 30.06 in 10.0 mi SSE 19.6 mph 27.6 mph N/A   Overcast
11:53 PM 64.9 °F - 35.1 °F 33% 30.04 in 10.0 mi SSE 19.6 mph 26.5 mph N/A   Overcast